Afonsos, Brazil

7:17 PM -03 on August 20, 2017 (GMT -0300)
Afonsos

Weather History for SBAF - February, 2013

Change the Weather History Date:

Thursday, February 14, 2013

  Actual Average Record
Temperature  
Mean Temperature 84 °F -  
Max Temperature 96 °F 90 °F 102 °F (2001)
Min Temperature 71 °F 76 °F 66 °F (2009)
Cooling Degree Days 18    
Growing Degree Days 34 (Base 50)    
Moisture  
Dew Point 71 °F    
Average Humidity 69    
Maximum Humidity 94    
Minimum Humidity 37    
Precipitation  
Precipitation 0.00 in - - ()
Sea Level Pressure  
Sea Level Pressure 29.89 in    
Wind  
Wind Speed 3 mph ()    
Max Wind Speed 13 mph    
Max Gust Speed -    
Visibility 6.2 miles    
Events      
Averages and records for this station are not official NWS values.
T = Trace of Precipitation, MM = Missing Value Source: Averaged Metar Reports

Daily Weather History Graph

Daily Weather History Graph

Search for Another Location

Airport or City:

Trip Planner

Search our weather history database for the weather conditions in past years. The results will help you decide how hot, cold, wet, or windy it might be!

Date:

Astronomy

Feb. 14, 2013 Rise Set
Actual Time 6:41 AM -02 7:33 PM -02
Civil Twilight 6:18 AM -02 7:56 PM -02
Nautical Twilight 5:51 AM -02 8:23 PM -02
Astronomical Twilight 5:23 AM -02 8:51 PM -02
Moon 10:36 AM -02 (2/14) 10:20 PM -02 (2/14)
Length of Visible Light 13h 38m
Length of Day
12h 51m
Waxing Crescent, 20% of the Moon is Illuminated
Feb 14
Waxing Crescent
Feb 17
First Quarter
Feb 25
Full
Mar 4
Last Quarter
Mar 11
New

Hourly Weather History & Observations

Time (-02) Temp. Heat Index Dew Point Humidity Pressure Visibility Wind Dir Wind Speed Gust Speed Precip Events Conditions
12:00 AM 77.0 °F - 71.6 °F 83% 29.95 in - SSW 3.5 mph - N/A   Clear
1:00 AM 77.0 °F - 71.6 °F 83% 29.95 in - WSW 3.5 mph - N/A   Clear
2:00 AM 75.2 °F - 71.6 °F 89% 29.95 in - SW 2.3 mph - N/A   Clear
3:00 AM 75.2 °F - 71.6 °F 89% 29.95 in - SW 1.2 mph - N/A   Clear
4:00 AM 73.4 °F - 69.8 °F 88% 29.92 in - West 2.3 mph - N/A   Clear
5:00 AM 71.6 °F - 69.8 °F 94% 29.92 in - West 2.3 mph - N/A   Clear
6:00 AM 73.4 °F - 71.6 °F 94% 29.89 in - WSW 1.2 mph - N/A   Clear
7:00 AM 73.4 °F - 71.6 °F 94% 29.89 in - West 4.6 mph - N/A   Clear
8:00 AM 78.8 °F - 75.2 °F 89% 29.92 in - Calm Calm - N/A   Clear
9:00 AM 84.2 °F 92.3 °F 75.2 °F 74% 29.92 in - NE 4.6 mph - N/A   Clear
10:00 AM 87.8 °F 95.6 °F 73.4 °F 62% 29.92 in - NNE 3.5 mph - N/A   Clear
11:00 AM 91.4 °F 100.1 °F 73.4 °F 55% 29.92 in - NNE 3.5 mph - N/A   Clear
12:00 PM 91.4 °F 100.1 °F 73.4 °F 55% 29.92 in - NE 3.5 mph - N/A   Clear
1:00 PM 95.0 °F 101.3 °F 69.8 °F 44% 29.89 in - NE 4.6 mph - N/A   Clear
2:00 PM 96.8 °F 100.7 °F 66.2 °F 37% 29.86 in - NNW 3.5 mph - N/A   Clear
4:00 PM 96.8 °F 107.3 °F 73.4 °F 47% 29.83 in - South 12.7 mph - N/A   Clear
5:00 PM 95.0 °F 103.2 °F 71.6 °F 47% 29.80 in 6.2 mi South 12.7 mph - N/A   Partly Cloudy
6:00 PM 93.2 °F 98.8 °F 69.8 °F 46% 29.80 in 6.2 mi SSW 11.5 mph - N/A   Partly Cloudy
7:00 PM 91.4 °F 96.8 °F 69.8 °F 49% 29.83 in - South 4.6 mph - N/A   Clear
8:00 PM 86.0 °F 89.4 °F 68.0 °F 55% 29.83 in 6.2 mi SSE 5.8 mph - N/A   Partly Cloudy
9:00 PM 82.4 °F 86.3 °F 69.8 °F 66% 29.86 in - West 3.5 mph - N/A   Clear
10:00 PM 78.8 °F - 69.8 °F 74% 29.89 in - WSW 4.6 mph - N/A   Clear
11:00 PM 78.8 °F - 69.8 °F 74% 29.92 in - West 3.5 mph - N/A   Clear